Regional Weather Roundup
Issued by NWS

Home | Current Version | Previous Version | Text Only | Print | Product List | Glossary Off
Versions: 1 2 3 4 5 6 7 8 9 10 11 12 13 14 15 16 17 18 19 20 21 22 23 24 25 26 27 28 29 30 31 32 33 34 35 36 37 38 39 40 41 42 43 44 45 46 47 48 49 50

000
ASUS45 KTFX 211304
RWRMT
MONTANA HOURLY WEATHER ROUNDUP
NATIONAL WEATHER SERVICE GREAT FALLS MT
704 AM MDT TUE OCT 21 2014

NOTE: "FAIR" INDICATES FEW OR NO CLOUDS BELOW 12000 FEET WITH NO
SIGNIFICANT WEATHER AND/OR OBSTRUCTIONS TO VISIBILITY.

* THESE STATIONS ARE NOT UNDER NWS QUALITY CONTROL. THEY DO NOT
   REPORT WEATHER SUCH AS PRECIPITATION OR FOG.

MTZ001>007-043-211400-
WEST OF THE DIVIDE
CITY           SKY/WX    TMP DP  RH WIND       PRES   REMARKS
KALISPELL      CLOUDY    43  41  93 CALM      29.76S
MISSOULA       LGT RAIN  50  46  86 NW9       29.81R
BUTTE          CLOUDY    48  36  63 E7        29.77F
MULLAN PASS    LGT RAIN  36  36 100 VRB5      29.84S WCI  32
* ESSEX        N/A       37  34  89 SE1        N/A
* LINCOLN      N/A       34  31  89 S3         N/A
* LOOKOUT PASS N/A       42  39  89 E6         N/A
* POLSON       N/A       50  40  69 SE1        N/A
* RONAN APT    CLOUDY    50  45  83 N/A        N/A
* SEELEY LAKE  N/A       40  36  86 SW1        N/A
* THOMP F APT  CLOUDY    49  39  69 SW4G16     N/A
$$

MTZ008-052>055-211400-
SOUTHWEST MONTANA
CITY           SKY/WX    TMP DP  RH WIND       PRES   REMARKS
BOZEMAN        CLOUDY    45  36  71 E3        29.76S
DILLON         CLOUDY    55  39  55 SW10      29.76S
W YELLOWSTONE  LGT RAIN  36  32  85 CALM      29.91F
* THREE FORKS  CLOUDY    43  43 100 N/A        N/A
* BOULDER HILL N/A       50  29  44 S11        N/A
* MONIDA PASS  N/A       45  39  80 SE6        N/A
* RAYNOLDS PAS N/A       46  27  48 S6         N/A
* WHITEHALL    N/A       45  35  68 E6         N/A
* WISE RIVER   N/A       38  33  82 W2G7       N/A
$$

MTZ009>010-012-014-046-048-049-054-211400-
EAST SLOPES AND CENTRAL MONTANA
CITY           SKY/WX    TMP DP  RH WIND       PRES   REMARKS
CUT BANK       CLOUDY    55  34  45 W14       29.66S
GREAT FALLS    MOCLDY    52  36  55 S7        29.66F
HELENA         MOCLDY    46  36  68 SE5       29.70F
MALMSTROM AFB  MOCLDY    52  36  55 SW8       29.67S
* CONRAD       CLOUDY    39  34  82 N/A        N/A
* DEARBORN     N/A       43  37  79 N/A        N/A
* EAST GLACIER N/A       51  35  54 W14G20     N/A
* MONARCH      N/A       54  32  43 S9         N/A
* PENDROY      N/A       56  35  45 VRB5G11    N/A
* ROGERS PASS  N/A       50  32  50 NW4        N/A
* SAINT MARY   N/A       54  33  45 S6G17      N/A
* SWEET GRASS  N/A       55  31  40 NW11       N/A
$$

MTZ011-013-016-021-035-040-045-047-050-051-211400-
NORTH CENTRAL MONTANA
CITY           SKY/WX    TMP DP  RH WIND       PRES   REMARKS
HAVRE          PTCLDY    34  32  92 W7        29.64S WCI  28
LEWISTOWN      CLEAR     55  36  49 VRB5      29.71F
* CHINOOK      CLEAR     41  37  86 CALM      29.63F
* FORT BENTON  MOCLDY    45  34  65 CALM      29.66F
* CHESTER      N/A       39  29  67 NE2        N/A
* DENTON       N/A       43  36  76 N/A        N/A
* GEYSER       N/A       59  36  42 SW1G7      N/A
* JUDITH GAP   N/A       44  35  71 S4         N/A
* LOMA         N/A       42  33  71 SW4        N/A
$$

MTZ017>020-022>027-061-062-211400-
NORTHEAST MONTANA
CITY           SKY/WX    TMP DP  RH WIND       PRES   REMARKS
GLASGOW        CLEAR     45  37  74 E16       29.67F
GLENDIVE       CLEAR     39  36  89 CALM      29.74F
JORDAN         CLEAR     34  30  85 CALM      29.69F
SIDNEY         CLEAR     36  34  92 CALM      29.75F
WOLF POINT     CLEAR     37  34  89 E6        29.72S WCI  32
* BEAVER HILL  N/A       44  39  83 SE11       N/A
* CIRCLE       N/A       49  41  74 N/A        N/A
* LINDSAY DVD  N/A       48  41  77 N/A        N/A
* NAVAJO       N/A       40  37  89 S4         N/A
$$

MTZ028>042-056>058-211400-
SOUTHCENTRAL AND SOUTHEAST MONTANA
CITY           SKY/WX    TMP DP  RH WIND       PRES   REMARKS
BAKER          CLEAR     39  37  93 E5        29.75F WCI  35
BILLINGS       CLEAR     50  28  43 SW15      29.73F
LIVINGSTON     PTCLDY    43  34  71 VRB3      29.78R
MILES CITY     CLEAR     37  34  89 E3        29.72F
* LAUREL APT   CLEAR     46  27  48 N/A        N/A
* ROUNDUP APT  CLEAR     43  28  56 SW6        N/A
* ALZADA       N/A       50  38  64 E4         N/A
* HYSHAM       N/A       52  28  40 W9         N/A
* LAME DEER    N/A       59  34  39 SW4        N/A
* REED POINT   N/A       35  34  96 NW1        N/A
* ROSCOE HILL  N/A       54  23  30 SW9        N/A
$$

REGIONAL REPORTS...DAKOTAS
CITY           SKY/WX    TMP DP  RH WIND       PRES   REMARKS
WILLISTON      CLEAR     39  36  89 CALM      29.76S
DICKINSON      CLEAR     37  34  89 SE7       29.76F WCI  32
BEACH          N/A       37  37 100 S6        29.76F WCI  32
CROSBY         CLEAR     45  39  80 S13       29.74F
TIOGA          CLEAR     43  39  86 SE9       29.81S
BISMARCK       CLEAR     46  36  68 E6        29.84F
GRAND FORKS    CLEAR     37  36  96 SE8       30.03S WCI  31
FARGO          CLEAR     45  37  74 SE16      30.03F
BUFFALO SD     CLEAR     46  39  77 S6        29.71F
RAPID CITY     CLEAR     46  37  71 SE5       29.83F
$$

REGIONAL REPORTS...WYOMING/IDAHO/WASHINGTON
CITY           SKY/WX    TMP DP  RH WIND       PRES   REMARKS
GILLETTE       CLEAR     57  34  42 SW20G29   29.81F
SHERIDAN       CLEAR     37  30  76 CALM      29.77F
CODY           CLEAR    N/A N/A N/A SW9       29.83S
YELLOWSTONE LA PTCLDY    28  27  96 CALM      30.01R
SALMON         CLOUDY    48  43  83 SE7       29.73S
MULLAN PASS    LGT RAIN  36  36 100 VRB5      29.84S WCI  32
SAND POINT     CLOUDY    50  45  83 S5        29.84S
SPOKANE        CLOUDY    48  45  89 S5        29.84S

$$



USA.gov is the U.S. government's official web portal to all federal, state and local government web resources and services.